Regional Weather Roundup
Issued by NWS Wilmington, NC

Home | Current Version | Previous Version | Text Only | Print | Product List | Glossary On
Versions: 1 2 3 4 5 6 7 8 9 10 11 12 13 14 15 16 17 18 19 20 21 22 23 24 25 26 27 28 29 30 31 32 33 34 35 36 37 38 39 40 41 42 43 44 45 46 47 48 49 50
000
ASUS42 KILM 261714
RWRILM
RWRILM
REGIONAL HOURLY WEATHER ROUNDUP
NATIONAL WEATHER SERVICE WILMINGTON NC
100 PM EDT MON JUN 26 2017

NOTE: "FAIR" INDICATES FEW OR NO CLOUDS BELOW 12,000 FEET WITH NO
SIGNIFICANT WEATHER AND/OR OBSTRUCTIONS TO VISIBILITY.

...............WFO WILMINGTON COUNTY WARNING AREA...............

......COASTAL NC AND SC COUNTIES......

CITY           SKY/WX    TMP DP  RH WIND       PRES   REMARKS
WILMINGTON     CLOUDY    83  60  45 N7        30.10F
N MYRTLE BEACH CLOUDY    81  61  50 N8        30.10F
MYRTLE BEACH   MOSUNNY   82  59  44 NE12      30.12S

......INLAND NC AND SC COUNTIES.......

CITY           SKY/WX    TMP DP  RH WIND       PRES   REMARKS
LUMBERTON      MOSUNNY   84  54  35 NE8       30.11F
ELIZABETHTOWN  NOT AVBL
WHITEVILLE     CLOUDY    79  58  47 NE5       30.11F
FLORENCE       SUNNY     84  56  38 VRB5      30.13S
DARLINGTON     SUNNY     84  53  34 E7        30.13
KINGSTREE      FAIR      79  55  44 NE6       30.12S
HARTSVILLE       N/A     82  50  32 E9        30.12F
BENNETTSVILLE  PTSUNNY   88  45  22 E6        30.12S
CONWAY         FAIR      81  57  44 E8        30.11F HAZE
GEORGETOWN     FAIR      81  61  50 NE8       30.11S
MARION         FAIR      82  55  39 E8        30.12F

....................REST OF NORTH CAROLINA......................

.........EASTERN NC.........

CITY           SKY/WX    TMP DP  RH WIND       PRES   REMARKS
CAPE HATTERAS  NOT AVBL
JACKSONVILLE   CLOUDY    82  57  42 NE9       30.11F
MOREHEAD CITY  CLOUDY    81  68  64 E8        30.09F
KENANSVILLE    CLOUDY    81  57  44 NE3       30.11F
NEW BERN       CLOUDY    80  61  52 E8        30.11F
ELIZABETH CITY SUNNY     83  60  45 E7        30.09F

.........CENTRAL NC.........

CITY           SKY/WX    TMP DP  RH WIND       PRES   REMARKS
RALEIGH DURHAM MOSUNNY   82  51  34 VRB5      30.12F
ROCKY MOUNT    SUNNY     82  50  32 NW7       30.11F
ROANOKE RAPIDS NOT AVBL
FAYETTEVILLE   SUNNY     86  53  32 N9        30.11F
HOFFMAN        MOSUNNY   84  51  31 N7        30.12F

.........WESTERN NC.........

CITY           SKY/WX    TMP DP  RH WIND       PRES   REMARKS
CHARLOTTE      MOSUNNY   82  48  30 N5        30.16F
GREENSBORO     MOSUNNY   79  51  37 NW10      30.14F
HICKORY        NOT AVBL
BOONE          NOT AVBL
ASHEVILLE      NOT AVBL

.....................REST OF SOUTH CAROLINA.....................

.........EASTERN SC.........

CITY           SKY/WX    TMP DP  RH WIND       PRES   REMARKS
CHARLESTON     MOSUNNY   85  66  53 NE10G22   30.09F
BEAUFORT MCAS  PTSUNNY   86  72  62 NE10      30.09S HX  92
HILTON HEAD    PTSUNNY   82  75  78 NE9       30.19R

.........CENTRAL SC.........

CITY           SKY/WX    TMP DP  RH WIND       PRES   REMARKS
COLUMBIA       PTSUNNY   85  51  31 N9        30.13F
ORANGEBURG     CLOUDY    81  55  40 NE10      30.13S
SUMTER SHAW    MOSUNNY   83  51  32 NE9       30.11S

.........WESTERN SC.........

CITY           SKY/WX    TMP DP  RH WIND       PRES   REMARKS
GREENVILLE     NOT AVBL
ROCK HILL      SUNNY     81  46  29 VRB5      30.16F
ANDERSON       SUNNY     81  52  36 VRB5      30.16F
CLEMSON        NOT AVBL
GREENWOOD      MOSUNNY   80  51  36 N8        30.18F


...................COASTAL AND OFFSHORE REPORTS..................

................LOCAL PIERS AND NC RESERVE................


STATION/POSITION TIME  SKY/WX   TEMP    WIND        PRES    VSBY
                                AIR SEA DIR/SP/G
                 (UTC)          (F)     (DEG/KT/KT) (MB)    (MI)
JOHNY MRCER PIER 1636            78 80   30/ 11/ 13 1018.4F
NC RESRV MASNBRO 1545            77      50/  4     1021.0
OCEAN CREST PIER NOT AVBL
SPRINGMAID  PIER 1648                               1019.0F


................COASTAL AND OFFSHORE BUOYS................


STATION/POSITION TIME  SKY/WX   TEMP    WIND        PRES    VSBY
                                AIR SEA DIR/SP/G
                 (UTC)          (F)     (DEG/KT/KT) (MB)    (MI)
DIMNDSHOAL 41025 1650            78 81   40/  6/  8 1018.8S
WVE H/P(F/S)=  2/ 8 SWL H/P/D(F/S/D)=  2/100/ 8

CAPE LOOKOUT     1700            77      50/ 10/ 11 1018.7F
ONSLOW BAY 41036 NOT AVBL
ONSLOW BAY 41064 1608            78 80  110/  8/ 12 1019.1S
ONSLOW BAY 41159 1643               80                N/A
WVE H/P(F/S)=  2/ 8

MASNBO INL 41110 1659               79                N/A
WVE H/P(F/S)=  2/ 8

WILM HARBR 41108 NOT AVBL
27SE WRITB 41037 1608            78 80   40/ 10/ 16 1018.4F
FRYING PAN 41013 1700            78 80   70/ 10/ 12 1018.4
SUNST NRSH 41024 1608            78 79   60/ 10/ 14 1019.1S
CAPRS NRSH 41029 1608            85 83   50/ 17/ 21 1018.4R
EDISTO     41004 1700            78 81   50/  8/ 12 1018.0


..........OFFSHORE BUOYS BEYOND 100 NM OFFSHORE...........
.....IN A TRIANGLE---HAT TO BERMUDA TO BAHAMAS TO HAT.....


STATION/POSITION TIME  SKY/WX   TEMP    WIND        PRES    VSBY
                                AIR SEA DIR/SP/G
                 (UTC)          (F)     (DEG/KT/KT) (MB)    (MI)
150E HAT   41001 1700            74 79  220/  4/  6 1019.5
W BERMUDA  41048 1700            81 81  220/ 10/ 12 1020.4
ATLANTIC S 41049 1650            81 83  110/  4/  6 1022.4F
WVE H/P(F/S)=  3/ 8 SWL H/P/D(F/S/D)=  3/120/ 8

E BAHAMAS  41046 1700            82 83  110/ 12/ 16 1019.5
NE BAHAMAS 41047 1700            82 83  180/ 10/ 12 1020.5
120E CANVRL41010 1700            83 84  200/ 12/ 16 1018.8

END



USA.gov is the U.S. government's official web portal to all federal, state and local government web resources and services.